Time,TemperatureF,DewpointF,PressureIn,WindDirection,WindDirectionDegrees,WindSpeedMPH,WindSpeedGustMPH,Humidity,HourlyPrecipIn,Conditions,Clouds,dailyrainin,SoftwareType,DateUTC
2013-01-08 00:00:00,33.5,24.3,30.35,SSW,203,0.0,0.2,69,0.00,,,0.00,WUHU216HW,2013-01-08 05:00:00,
2013-01-08 00:01:00,33.5,24.3,30.35,SSW,203,0.0,0.2,69,0.00,,,0.00,WUHU216HW,2013-01-08 05:01:00,
2013-01-08 00:02:00,33.5,24.3,30.35,SSW,203,0.0,0.2,69,0.00,,,0.00,WUHU216HW,2013-01-08 05:02:00,
2013-01-08 00:07:00,33.5,24.7,30.36,SSW,203,0.0,0.0,70,0.00,,,0.00,WUHU216HW,2013-01-08 05:07:00,
2013-01-08 00:12:00,33.3,24.6,30.35,SSW,203,0.0,0.0,70,0.00,,,0.00,WUHU216HW,2013-01-08 05:12:00,
2013-01-08 00:17:00,33.1,24.4,30.35,South,180,0.0,0.2,70,0.00,,,0.00,WUHU216HW,2013-01-08 05:17:00,
2013-01-08 00:22:00,33.1,24.4,30.36,SSW,203,0.0,0.2,70,0.00,,,0.00,WUHU216HW,2013-01-08 05:22:00,
2013-01-08 00:27:00,32.9,23.9,30.35,SSW,203,0.0,0.2,69,0.00,,,0.00,WUHU216HW,2013-01-08 05:27:00,
2013-01-08 00:32:00,32.8,23.7,30.35,SSW,203,0.2,0.2,69,0.00,,,0.00,WUHU216HW,2013-01-08 05:32:00,
2013-01-08 00:37:00,32.8,24.0,30.35,SW,225,0.4,0.4,70,0.00,,,0.00,WUHU216HW,2013-01-08 05:37:00,
2013-01-08 00:42:00,32.8,24.0,30.35,SW,225,0.0,0.4,70,0.00,,,0.00,WUHU216HW,2013-01-08 05:42:00,
2013-01-08 00:47:00,32.6,23.9,30.35,SW,225,0.0,0.2,70,0.00,,,0.00,WUHU216HW,2013-01-08 05:47:00,
2013-01-08 00:52:00,32.6,23.9,30.35,SW,225,0.0,0.0,70,0.00,,,0.00,WUHU216HW,2013-01-08 05:52:00,
2013-01-08 00:57:00,32.6,23.9,30.35,SW,225,0.0,0.4,70,0.00,,,0.00,WUHU216HW,2013-01-08 05:57:00,
2013-01-08 01:02:00,32.4,23.8,30.36,SW,225,0.0,0.4,70,0.00,,,0.00,WUHU216HW,2013-01-08 06:02:00,
2013-01-08 01:07:00,32.4,23.8,30.35,SW,225,0.0,0.0,70,0.00,,,0.00,WUHU216HW,2013-01-08 06:07:00,
2013-01-08 01:12:00,32.4,23.8,30.35,SW,225,0.0,0.0,70,0.00,,,0.00,WUHU216HW,2013-01-08 06:12:00,
2013-01-08 01:17:00,32.4,23.8,30.36,SW,225,0.0,0.0,70,0.00,,,0.00,WUHU216HW,2013-01-08 06:17:00,
2013-01-08 01:22:00,32.2,23.9,30.35,SW,225,0.0,0.0,71,0.00,,,0.00,WUHU216HW,2013-01-08 06:22:00,
2013-01-08 01:27:00,32.0,23.8,30.35,SW,225,0.0,0.0,71,0.00,,,0.00,WUHU216HW,2013-01-08 06:27:00,
2013-01-08 01:32:00,32.0,23.8,30.35,SW,225,0.0,0.0,71,0.00,,,0.00,WUHU216HW,2013-01-08 06:32:00,
2013-01-08 01:37:00,32.0,23.8,30.35,SW,225,0.0,0.0,71,0.00,,,0.00,WUHU216HW,2013-01-08 06:37:00,
2013-01-08 01:42:00,31.9,23.6,30.35,SW,225,0.0,0.0,71,0.00,,,0.00,WUHU216HW,2013-01-08 06:42:00,
2013-01-08 01:47:00,31.9,23.6,30.35,SW,225,0.0,0.0,71,0.00,,,0.00,WUHU216HW,2013-01-08 06:47:00,
2013-01-08 01:52:00,31.7,23.4,30.35,SW,225,0.0,0.0,71,0.00,,,0.00,WUHU216HW,2013-01-08 06:52:00,
2013-01-08 01:57:00,31.7,23.7,30.35,SW,225,0.0,0.0,72,0.00,,,0.00,WUHU216HW,2013-01-08 06:57:00,
2013-01-08 02:02:00,31.7,23.7,30.35,South,180,0.0,0.2,72,0.00,,,0.00,WUHU216HW,2013-01-08 07:02:00,
2013-01-08 02:07:00,31.7,23.7,30.35,South,180,0.0,0.2,72,0.00,,,0.00,WUHU216HW,2013-01-08 07:07:00,
2013-01-08 02:12:00,31.5,23.5,30.35,South,180,0.0,0.0,72,0.00,,,0.00,WUHU216HW,2013-01-08 07:12:00,
2013-01-08 02:17:00,31.5,23.5,30.35,South,180,0.0,0.0,72,0.00,,,0.00,WUHU216HW,2013-01-08 07:17:00,
2013-01-08 02:22:00,31.5,23.5,30.35,SSW,203,0.0,0.0,72,0.00,,,0.00,WUHU216HW,2013-01-08 07:22:00,
2013-01-08 02:27:00,31.3,23.3,30.35,SSW,203,0.0,0.0,72,0.00,,,0.00,WUHU216HW,2013-01-08 07:27:00,
2013-01-08 02:32:00,31.3,23.3,30.35,SSW,203,0.0,0.0,72,0.00,,,0.00,WUHU216HW,2013-01-08 07:32:00,
2013-01-08 02:37:00,31.5,23.9,30.35,SSW,203,0.0,0.0,73,0.00,,,0.00,WUHU216HW,2013-01-08 07:37:00,
2013-01-08 02:42:00,31.3,23.7,30.35,SSW,203,0.0,0.0,73,0.00,,,0.00,WUHU216HW,2013-01-08 07:42:00,
2013-01-08 02:47:00,31.3,23.7,30.34,SSW,203,0.0,0.0,73,0.00,,,0.00,WUHU216HW,2013-01-08 07:47:00,
2013-01-08 02:52:00,31.3,23.7,30.34,SSW,203,0.4,0.4,73,0.00,,,0.00,WUHU216HW,2013-01-08 07:52:00,
2013-01-08 02:57:00,31.3,23.7,30.34,SSW,203,0.0,0.4,73,0.00,,,0.00,WUHU216HW,2013-01-08 07:57:00,
2013-01-08 03:02:00,31.3,23.7,30.34,SSW,203,0.0,0.4,73,0.00,,,0.00,WUHU216HW,2013-01-08 08:02:00,
2013-01-08 03:07:00,31.3,23.7,30.34,SSW,203,0.2,0.2,73,0.00,,,0.00,WUHU216HW,2013-01-08 08:07:00,
2013-01-08 03:12:00,31.3,23.7,30.34,SSW,203,0.0,0.2,73,0.00,,,0.00,WUHU216HW,2013-01-08 08:12:00,
2013-01-08 03:17:00,31.1,23.5,30.34,SSW,203,0.0,0.0,73,0.00,,,0.00,WUHU216HW,2013-01-08 08:17:00,
2013-01-08 03:22:00,31.1,23.5,30.34,SSW,203,0.0,0.0,73,0.00,,,0.00,WUHU216HW,2013-01-08 08:22:00,
2013-01-08 03:27:00,31.1,23.5,30.34,SSW,203,0.0,0.0,73,0.00,,,0.00,WUHU216HW,2013-01-08 08:27:00,
2013-01-08 03:32:00,31.1,23.5,30.34,SSW,203,0.0,0.0,73,0.00,,,0.00,WUHU216HW,2013-01-08 08:32:00,
2013-01-08 03:37:00,31.1,23.5,30.34,SSW,203,0.0,0.2,73,0.00,,,0.00,WUHU216HW,2013-01-08 08:37:00,
2013-01-08 03:42:00,31.1,23.8,30.34,SSW,203,0.0,0.4,74,0.00,,,0.00,WUHU216HW,2013-01-08 08:42:00,
2013-01-08 03:47:00,31.1,23.8,30.33,SSW,203,0.2,0.4,74,0.00,,,0.00,WUHU216HW,2013-01-08 08:47:00,
2013-01-08 03:52:00,31.1,23.8,30.33,SE,135,0.0,0.2,74,0.00,,,0.00,WUHU216HW,2013-01-08 08:52:00,
2013-01-08 03:57:00,31.1,23.8,30.33,SE,135,0.0,0.0,74,0.00,,,0.00,WUHU216HW,2013-01-08 08:57:00,
2013-01-08 04:02:00,31.1,23.8,30.33,SSE,158,0.2,0.2,74,0.00,,,0.00,WUHU216HW,2013-01-08 09:02:00,
2013-01-08 04:07:00,31.1,23.8,30.33,SSW,203,1.1,1.1,74,0.00,,,0.00,WUHU216HW,2013-01-08 09:07:00,
2013-01-08 04:12:00,31.1,23.8,30.33,SSE,158,0.4,1.1,74,0.00,,,0.00,WUHU216HW,2013-01-08 09:12:00,
2013-01-08 04:17:00,31.3,23.9,30.33,SSE,158,0.4,0.9,74,0.00,,,0.00,WUHU216HW,2013-01-08 09:17:00,
2013-01-08 04:22:00,31.3,23.9,30.32,SSE,158,0.4,0.4,74,0.00,,,0.00,WUHU216HW,2013-01-08 09:22:00,
2013-01-08 04:27:00,31.5,24.1,30.32,SW,225,0.4,0.4,74,0.00,,,0.00,WUHU216HW,2013-01-08 09:27:00,
2013-01-08 04:32:00,31.7,24.3,30.32,SSW,203,0.0,0.9,74,0.00,,,0.00,WUHU216HW,2013-01-08 09:32:00,
2013-01-08 04:37:00,31.7,24.3,30.32,SW,225,0.2,0.9,74,0.00,,,0.00,WUHU216HW,2013-01-08 09:37:00,
2013-01-08 04:42:00,31.9,24.5,30.32,SSE,158,0.4,0.9,74,0.00,,,0.00,WUHU216HW,2013-01-08 09:42:00,
2013-01-08 04:47:00,32.0,24.7,30.32,SSW,203,0.2,1.1,74,0.00,,,0.00,WUHU216HW,2013-01-08 09:47:00,
2013-01-08 04:52:00,32.0,24.7,30.33,SSW,203,0.7,1.1,74,0.00,,,0.00,WUHU216HW,2013-01-08 09:52:00,
2013-01-08 04:57:00,32.0,24.7,30.33,SSE,158,0.4,1.3,74,0.00,,,0.00,WUHU216HW,2013-01-08 09:57:00,
2013-01-08 05:02:00,32.0,24.7,30.33,SSE,158,0.2,1.3,74,0.00,,,0.00,WUHU216HW,2013-01-08 10:02:00,
2013-01-08 05:07:00,32.2,24.8,30.33,SSE,158,0.9,1.1,74,0.00,,,0.00,WUHU216HW,2013-01-08 10:07:00,
2013-01-08 05:12:00,32.2,24.8,30.33,SSE,158,1.1,1.1,74,0.00,,,0.00,WUHU216HW,2013-01-08 10:12:00,
2013-01-08 05:17:00,32.2,24.8,30.33,SSE,158,1.1,1.1,74,0.00,,,0.00,WUHU216HW,2013-01-08 10:17:00,
2013-01-08 05:22:00,32.4,25.0,30.33,SSE,158,0.7,1.1,74,0.00,,,0.00,WUHU216HW,2013-01-08 10:22:00,
2013-01-08 05:27:00,32.4,25.0,30.33,SSE,158,0.7,1.1,74,0.00,,,0.00,WUHU216HW,2013-01-08 10:27:00,
2013-01-08 05:32:00,32.6,25.2,30.34,SSE,158,0.9,1.3,74,0.00,,,0.00,WUHU216HW,2013-01-08 10:32:00,
2013-01-08 05:37:00,32.6,25.2,30.34,SW,225,1.1,1.3,74,0.00,,,0.00,WUHU216HW,2013-01-08 10:37:00,
2013-01-08 05:42:00,32.8,25.4,30.34,SSE,158,0.4,1.1,74,0.00,,,0.00,WUHU216HW,2013-01-08 10:42:00,
2013-01-08 05:47:00,32.8,25.4,30.34,SW,225,0.4,1.1,74,0.00,,,0.00,WUHU216HW,2013-01-08 10:47:00,
2013-01-08 05:52:00,32.8,25.4,30.34,South,180,0.2,1.1,74,0.00,,,0.00,WUHU216HW,2013-01-08 10:52:00,
2013-01-08 05:57:00,32.8,25.4,30.35,SSW,203,0.4,1.3,74,0.00,,,0.00,WUHU216HW,2013-01-08 10:57:00,
2013-01-08 06:02:00,32.8,25.4,30.35,SSE,158,1.1,1.3,74,0.00,,,0.00,WUHU216HW,2013-01-08 11:02:00,
2013-01-08 06:07:00,32.8,25.4,30.35,SSW,203,0.4,1.1,74,0.00,,,0.00,WUHU216HW,2013-01-08 11:07:00,
2013-01-08 06:12:00,32.8,25.4,30.35,SSE,158,0.4,1.1,74,0.00,,,0.00,WUHU216HW,2013-01-08 11:12:00,
2013-01-08 06:17:00,32.8,25.4,30.36,SSW,203,0.2,1.1,74,0.00,,,0.00,WUHU216HW,2013-01-08 11:17:00,
2013-01-08 06:22:00,32.8,25.4,30.35,SSW,203,0.2,1.1,74,0.00,,,0.00,WUHU216HW,2013-01-08 11:22:00,
2013-01-08 06:27:00,32.8,25.4,30.36,SSE,158,0.7,0.7,74,0.00,,,0.00,WUHU216HW,2013-01-08 11:27:00,
2013-01-08 06:32:00,32.8,25.4,30.36,SSW,203,0.7,0.9,74,0.00,,,0.00,WUHU216HW,2013-01-08 11:32:00,
2013-01-08 06:37:00,32.9,25.5,30.36,SSE,158,1.8,1.8,74,0.00,,,0.00,WUHU216HW,2013-01-08 11:37:00,
2013-01-08 06:42:00,32.9,25.5,30.36,SSW,203,1.1,2.0,74,0.00,,,0.00,WUHU216HW,2013-01-08 11:42:00,
2013-01-08 06:47:00,32.9,25.5,30.36,SSE,158,0.9,2.0,74,0.00,,,0.00,WUHU216HW,2013-01-08 11:47:00,
2013-01-08 06:52:00,33.1,25.7,30.36,SSW,203,0.0,2.0,74,0.00,,,0.00,WUHU216HW,2013-01-08 11:52:00,
2013-01-08 06:57:00,33.1,25.7,30.37,SSE,158,0.2,1.1,74,0.00,,,0.00,WUHU216HW,2013-01-08 11:57:00,
2013-01-08 07:02:00,33.3,25.8,30.36,South,180,0.9,1.1,74,0.00,,,0.00,WUHU216HW,2013-01-08 12:02:00,
2013-01-08 07:07:00,33.3,25.8,30.36,SSE,158,1.3,1.3,74,0.00,,,0.00,WUHU216HW,2013-01-08 12:07:00,
2013-01-08 07:12:00,33.3,25.8,30.36,South,180,0.4,1.3,74,0.00,,,0.00,WUHU216HW,2013-01-08 12:12:00,
2013-01-08 07:17:00,33.3,25.8,30.36,SSE,158,0.2,1.1,74,0.00,,,0.00,WUHU216HW,2013-01-08 12:17:00,
2013-01-08 07:22:00,33.5,26.0,30.36,SSE,158,0.4,0.9,74,0.00,,,0.00,WUHU216HW,2013-01-08 12:22:00,
2013-01-08 07:27:00,33.5,26.0,30.36,SSE,158,0.7,1.1,74,0.00,,,0.00,WUHU216HW,2013-01-08 12:27:00,
2013-01-08 07:32:00,33.3,25.8,30.36,SSE,158,0.4,1.1,74,0.00,,,0.00,WUHU216HW,2013-01-08 12:32:00,
2013-01-08 07:37:00,33.3,25.8,30.36,SSE,158,0.9,0.9,74,0.00,,,0.00,WUHU216HW,2013-01-08 12:37:00,
2013-01-08 07:42:00,33.3,26.2,30.36,SSE,158,0.2,0.9,75,0.00,,,0.00,WUHU216HW,2013-01-08 12:42:00,
2013-01-08 07:47:00,33.5,26.3,30.36,SSE,158,0.7,0.9,75,0.00,,,0.00,WUHU216HW,2013-01-08 12:47:00,
2013-01-08 07:52:00,33.5,26.3,30.36,SSE,158,0.4,0.9,75,0.00,,,0.00,WUHU216HW,2013-01-08 12:52:00,
2013-01-08 07:57:00,33.7,26.5,30.37,SSE,158,0.7,1.3,75,0.00,,,0.00,WUHU216HW,2013-01-08 12:57:00,
2013-01-08 08:02:00,33.8,26.6,30.37,SW,225,1.1,1.8,75,0.00,,,0.00,WUHU216HW,2013-01-08 13:02:00,
2013-01-08 08:07:00,34.2,27.4,30.37,SE,135,1.1,1.8,76,0.00,,,0.00,WUHU216HW,2013-01-08 13:07:00,
2013-01-08 08:12:00,34.7,27.9,30.38,SSE,158,1.8,1.8,76,0.00,,,0.00,WUHU216HW,2013-01-08 13:12:00,
2013-01-08 08:17:00,35.1,28.5,30.38,SE,135,2.2,2.2,77,0.00,,,0.00,WUHU216HW,2013-01-08 13:17:00,
2013-01-08 08:22:00,35.5,28.9,30.38,SSW,203,3.1,3.1,77,0.00,,,0.00,WUHU216HW,2013-01-08 13:22:00,
2013-01-08 08:27:00,36.0,29.4,30.38,South,180,1.3,4.3,77,0.00,,,0.00,WUHU216HW,2013-01-08 13:27:00,
2013-01-08 08:32:00,36.2,29.6,30.38,South,180,2.5,4.7,77,0.00,,,0.00,WUHU216HW,2013-01-08 13:32:00,
2013-01-08 08:37:00,36.5,30.0,30.39,SSW,203,0.9,4.7,77,0.00,,,0.00,WUHU216HW,2013-01-08 13:37:00,
2013-01-08 08:42:00,37.1,30.5,30.39,SSW,203,1.3,3.4,77,0.00,,,0.00,WUHU216HW,2013-01-08 13:42:00,
2013-01-08 08:47:00,37.3,30.7,30.39,SSW,203,2.5,2.9,77,0.00,,,0.00,WUHU216HW,2013-01-08 13:47:00,
2013-01-08 08:52:00,37.4,30.6,30.39,SW,225,1.3,4.3,76,0.00,,,0.00,WUHU216HW,2013-01-08 13:52:00,
2013-01-08 08:57:00,37.8,30.9,30.39,WSW,248,1.1,4.3,76,0.00,,,0.00,WUHU216HW,2013-01-08 13:57:00,
2013-01-08 09:02:00,38.0,31.1,30.39,SSE,158,2.5,2.9,76,0.00,,,0.00,WUHU216HW,2013-01-08 14:02:00,
2013-01-08 09:07:00,38.3,31.8,30.39,SE,135,3.8,3.8,77,0.00,,,0.00,WUHU216HW,2013-01-08 14:07:00,
2013-01-08 09:12:00,38.5,32.0,30.38,WSW,248,2.7,3.8,77,0.00,,,0.00,WUHU216HW,2013-01-08 14:12:00,
2013-01-08 09:17:00,39.1,32.1,30.38,SW,225,1.6,4.7,76,0.00,,,0.00,WUHU216HW,2013-01-08 14:17:00,
2013-01-08 09:22:00,39.2,32.3,30.39,WSW,248,1.8,4.7,76,0.00,,,0.00,WUHU216HW,2013-01-08 14:22:00,
2013-01-08 09:27:00,39.4,32.1,30.39,SSE,158,1.3,5.1,75,0.00,,,0.00,WUHU216HW,2013-01-08 14:27:00,
2013-01-08 09:32:00,40.0,32.7,30.39,SW,225,2.5,5.1,75,0.00,,,0.00,WUHU216HW,2013-01-08 14:32:00,
2013-01-08 09:37:00,40.1,32.5,30.38,South,180,2.9,3.6,74,0.00,,,0.00,WUHU216HW,2013-01-08 14:37:00,
2013-01-08 09:42:00,40.5,32.9,30.38,SW,225,2.7,3.4,74,0.00,,,0.00,WUHU216HW,2013-01-08 14:42:00,
2013-01-08 09:47:00,40.9,33.1,30.39,South,180,1.8,3.4,74,0.00,,,0.00,WUHU216HW,2013-01-08 14:47:00,
2013-01-08 09:52:00,41.2,33.2,30.39,South,180,3.4,3.4,73,0.00,,,0.00,WUHU216HW,2013-01-08 14:52:00,
2013-01-08 09:57:00,41.4,33.4,30.39,South,180,3.6,4.3,73,0.00,,,0.00,WUHU216HW,2013-01-08 14:57:00,
2013-01-08 10:02:00,41.8,33.4,30.39,SSW,203,4.7,5.1,72,0.00,,,0.00,WUHU216HW,2013-01-08 15:02:00,
2013-01-08 10:07:00,42.1,33.8,30.39,SSW,203,2.5,5.1,72,0.00,,,0.00,WUHU216HW,2013-01-08 15:07:00,
2013-01-08 10:12:00,42.5,33.9,30.39,SSE,158,2.9,4.5,71,0.00,,,0.00,WUHU216HW,2013-01-08 15:12:00,
2013-01-08 10:17:00,42.8,34.2,30.38,SSE,158,3.4,5.1,71,0.00,,,0.00,WUHU216HW,2013-01-08 15:17:00,
2013-01-08 10:22:00,43.2,34.5,30.38,SW,225,2.7,5.1,71,0.00,,,0.00,WUHU216HW,2013-01-08 15:22:00,
2013-01-08 10:27:00,43.6,34.8,30.38,WSW,248,1.6,4.7,71,0.00,,,0.00,WUHU216HW,2013-01-08 15:27:00,
2013-01-08 10:32:00,43.9,35.2,30.38,South,180,2.5,4.7,71,0.00,,,0.00,WUHU216HW,2013-01-08 15:32:00,
2013-01-08 10:37:00,44.3,35.1,30.37,SSE,158,2.5,4.7,70,0.00,,,0.00,WUHU216HW,2013-01-08 15:37:00,
2013-01-08 10:42:00,44.6,35.1,30.37,SW,225,2.5,4.7,69,0.00,,,0.00,WUHU216HW,2013-01-08 15:42:00,
2013-01-08 10:47:00,45.0,35.1,30.36,South,180,1.8,4.9,68,0.00,,,0.00,WUHU216HW,2013-01-08 15:47:00,
2013-01-08 10:52:00,45.2,35.2,30.36,SE,135,2.2,4.9,68,0.00,,,0.00,WUHU216HW,2013-01-08 15:52:00,
2013-01-08 10:57:00,45.5,35.2,30.36,SW,225,2.9,3.4,67,0.00,,,0.00,WUHU216HW,2013-01-08 15:57:00,
2013-01-08 11:02:00,46.1,35.4,30.36,SW,225,2.5,3.6,66,0.00,,,0.00,WUHU216HW,2013-01-08 16:02:00,
2013-01-08 11:07:00,46.4,35.6,30.35,WSW,248,2.5,3.6,66,0.00,,,0.00,WUHU216HW,2013-01-08 16:07:00,
2013-01-08 11:12:00,47.0,35.8,30.34,SW,225,2.5,4.7,65,0.00,,,0.00,WUHU216HW,2013-01-08 16:12:00,
2013-01-08 11:17:00,47.3,35.7,30.34,South,180,2.5,4.7,64,0.00,,,0.00,WUHU216HW,2013-01-08 16:17:00,
2013-01-08 11:22:00,47.9,35.9,30.34,SSW,203,3.4,5.1,63,0.00,,,0.00,WUHU216HW,2013-01-08 16:22:00,
2013-01-08 11:27:00,48.1,36.1,30.33,SW,225,5.8,5.8,63,0.00,,,0.00,WUHU216HW,2013-01-08 16:27:00,
2013-01-08 11:32:00,48.2,35.8,30.33,SSW,203,4.0,5.8,62,0.00,,,0.00,WUHU216HW,2013-01-08 16:32:00,
2013-01-08 11:37:00,48.2,35.8,30.32,SSW,203,4.9,7.4,62,0.00,,,0.00,WUHU216HW,2013-01-08 16:37:00,
2013-01-08 11:42:00,48.2,35.5,30.32,South,180,4.0,7.4,61,0.00,,,0.00,WUHU216HW,2013-01-08 16:42:00,
2013-01-08 11:47:00,48.2,35.5,30.32,South,180,4.3,5.8,61,0.00,,,0.00,WUHU216HW,2013-01-08 16:47:00,
2013-01-08 11:52:00,48.4,35.6,30.31,SE,135,2.5,4.7,61,0.00,,,0.00,WUHU216HW,2013-01-08 16:52:00,
2013-01-08 11:57:00,48.6,35.8,30.31,SSW,203,4.0,4.7,61,0.00,,,0.00,WUHU216HW,2013-01-08 16:57:00,
2013-01-08 12:02:00,48.6,35.8,30.31,SSE,158,2.5,4.7,61,0.00,,,0.00,WUHU216HW,2013-01-08 17:02:00,
2013-01-08 12:07:00,48.6,35.8,30.31,SSE,158,3.4,4.3,61,0.00,,,0.00,WUHU216HW,2013-01-08 17:07:00,
2013-01-08 12:12:00,49.0,36.1,30.31,SSE,158,3.4,4.0,61,0.00,,,0.00,WUHU216HW,2013-01-08 17:12:00,
2013-01-08 12:17:00,49.1,36.3,30.31,SSW,203,2.2,4.0,61,0.00,,,0.00,WUHU216HW,2013-01-08 17:17:00,
2013-01-08 12:22:00,49.3,36.5,30.31,West,270,1.8,3.4,61,0.00,,,0.00,WUHU216HW,2013-01-08 17:22:00,
2013-01-08 12:27:00,49.3,36.5,30.31,SE,135,3.8,4.5,61,0.00,,,0.00,WUHU216HW,2013-01-08 17:27:00,
2013-01-08 12:32:00,49.3,36.5,30.31,South,180,2.5,4.5,61,0.00,,,0.00,WUHU216HW,2013-01-08 17:32:00,
2013-01-08 12:37:00,49.7,36.4,30.31,WSW,248,2.2,4.0,60,0.00,,,0.00,WUHU216HW,2013-01-08 17:37:00,
2013-01-08 12:42:00,49.7,36.4,30.31,SE,135,1.8,4.0,60,0.00,,,0.00,WUHU216HW,2013-01-08 17:42:00,
2013-01-08 12:47:00,49.7,36.4,30.31,SE,135,2.0,3.8,60,0.00,,,0.00,WUHU216HW,2013-01-08 17:47:00,
2013-01-08 12:52:00,49.9,36.1,30.30,SSE,158,6.9,7.8,59,0.00,,,0.00,WUHU216HW,2013-01-08 17:52:00,
2013-01-08 12:57:00,49.7,35.9,30.30,SSE,158,4.9,7.8,59,0.00,,,0.00,WUHU216HW,2013-01-08 17:57:00,
2013-01-08 13:02:00,49.7,35.5,30.30,WSW,248,5.6,6.7,58,0.00,,,0.00,WUHU216HW,2013-01-08 18:02:00,
2013-01-08 13:07:00,49.5,35.8,30.30,SSW,203,5.1,6.7,59,0.00,,,0.00,WUHU216HW,2013-01-08 18:07:00,
2013-01-08 13:12:00,49.5,35.8,30.30,South,180,3.8,5.1,59,0.00,,,0.00,WUHU216HW,2013-01-08 18:12:00,
2013-01-08 13:17:00,49.7,35.5,30.30,SSW,203,3.6,4.7,58,0.00,,,0.00,WUHU216HW,2013-01-08 18:17:00,
2013-01-08 13:22:00,49.7,35.5,30.30,SSW,203,2.9,4.7,58,0.00,,,0.00,WUHU216HW,2013-01-08 18:22:00,
2013-01-08 13:27:00,49.7,35.5,30.29,SSE,158,5.1,5.1,58,0.00,,,0.00,WUHU216HW,2013-01-08 18:27:00,
2013-01-08 13:32:00,49.7,35.5,30.30,WSW,248,2.5,5.4,58,0.00,,,0.00,WUHU216HW,2013-01-08 18:32:00,
2013-01-08 13:37:00,49.7,35.5,30.30,SSE,158,2.5,5.4,58,0.00,,,0.00,WUHU216HW,2013-01-08 18:37:00,
2013-01-08 13:42:00,49.9,35.6,30.30,SSE,158,9.8,9.8,58,0.00,,,0.00,WUHU216HW,2013-01-08 18:42:00,
2013-01-08 13:47:00,50.0,35.8,30.30,SE,135,3.1,9.8,58,0.00,,,0.00,WUHU216HW,2013-01-08 18:47:00,
2013-01-08 13:52:00,50.0,35.8,30.30,SW,225,2.2,4.0,58,0.00,,,0.00,WUHU216HW,2013-01-08 18:52:00,
2013-01-08 13:57:00,50.2,35.6,30.29,SSE,158,4.0,4.0,57,0.00,,,0.00,WUHU216HW,2013-01-08 18:57:00,
2013-01-08 14:02:00,50.0,35.4,30.30,SW,225,2.5,4.7,57,0.00,,,0.00,WUHU216HW,2013-01-08 19:02:00,
2013-01-08 14:07:00,50.0,35.8,30.29,SW,225,1.1,4.7,58,0.00,,,0.00,WUHU216HW,2013-01-08 19:07:00,
2013-01-08 14:12:00,50.2,35.6,30.29,SW,225,1.1,5.4,57,0.00,,,0.00,WUHU216HW,2013-01-08 19:12:00,
2013-01-08 14:17:00,50.0,35.4,30.30,South,180,4.0,5.4,57,0.00,,,0.00,WUHU216HW,2013-01-08 19:17:00,
2013-01-08 14:22:00,50.0,35.4,30.30,SSW,203,1.8,4.3,57,0.00,,,0.00,WUHU216HW,2013-01-08 19:22:00,
2013-01-08 14:27:00,50.0,35.4,30.30,WSW,248,2.5,4.3,57,0.00,,,0.00,WUHU216HW,2013-01-08 19:27:00,
2013-01-08 14:32:00,50.2,35.6,30.30,WSW,248,2.5,4.0,57,0.00,,,0.00,WUHU216HW,2013-01-08 19:32:00,
2013-01-08 14:37:00,50.0,35.4,30.30,SSE,158,0.9,4.0,57,0.00,,,0.00,WUHU216HW,2013-01-08 19:37:00,
2013-01-08 14:42:00,50.0,35.8,30.31,SE,135,1.8,3.4,58,0.00,,,0.00,WUHU216HW,2013-01-08 19:42:00,
2013-01-08 14:47:00,49.7,36.4,30.31,SSE,158,2.2,3.4,60,0.00,,,0.00,WUHU216HW,2013-01-08 19:47:00,
2013-01-08 14:52:00,49.3,36.5,30.31,South,180,2.2,2.5,61,0.00,,,0.00,WUHU216HW,2013-01-08 19:52:00,
2013-01-08 14:57:00,49.0,36.6,30.31,SSE,158,2.5,3.4,62,0.00,,,0.00,WUHU216HW,2013-01-08 19:57:00,
2013-01-08 15:02:00,48.6,36.2,30.31,South,180,3.1,3.4,62,0.00,,,0.00,WUHU216HW,2013-01-08 20:02:00,
2013-01-08 15:07:00,48.6,36.5,30.31,SSW,203,1.1,3.1,63,0.00,,,0.00,WUHU216HW,2013-01-08 20:07:00,
2013-01-08 15:12:00,48.4,36.4,30.31,SSE,158,2.9,2.9,63,0.00,,,0.00,WUHU216HW,2013-01-08 20:12:00,
2013-01-08 15:17:00,48.2,36.3,30.31,SE,135,2.5,2.9,63,0.00,,,0.00,WUHU216HW,2013-01-08 20:17:00,
2013-01-08 15:22:00,48.2,36.3,30.31,South,180,1.1,2.9,63,0.00,,,0.00,WUHU216HW,2013-01-08 20:22:00,
2013-01-08 15:27:00,48.2,36.6,30.31,SSE,158,0.7,2.5,64,0.00,,,0.00,WUHU216HW,2013-01-08 20:27:00,
2013-01-08 15:32:00,48.2,36.6,30.31,SSE,158,0.4,2.5,64,0.00,,,0.00,WUHU216HW,2013-01-08 20:32:00,
2013-01-08 15:37:00,48.2,36.6,30.31,WNW,293,0.2,2.2,64,0.00,,,0.00,WUHU216HW,2013-01-08 20:37:00,
2013-01-08 15:42:00,48.1,36.5,30.31,NW,315,1.1,3.6,64,0.00,,,0.00,WUHU216HW,2013-01-08 20:42:00,
2013-01-08 15:47:00,48.1,36.1,30.31,SW,225,3.4,3.6,63,0.00,,,0.00,WUHU216HW,2013-01-08 20:47:00,
2013-01-08 15:52:00,48.1,35.6,30.31,SSW,203,2.5,3.4,62,0.00,,,0.00,WUHU216HW,2013-01-08 20:52:00,
2013-01-08 15:57:00,48.2,35.5,30.31,NW,315,1.3,3.4,61,0.00,,,0.00,WUHU216HW,2013-01-08 20:57:00,
2013-01-08 16:02:00,48.1,35.3,30.31,SW,225,3.6,3.6,61,0.00,,,0.00,WUHU216HW,2013-01-08 21:02:00,
2013-01-08 16:07:00,48.2,35.5,30.31,WSW,248,1.1,3.6,61,0.00,,,0.00,WUHU216HW,2013-01-08 21:07:00,
2013-01-08 16:13:00,48.1,35.3,30.32,West,270,0.7,2.0,61,0.00,,,0.00,WUHU216HW,2013-01-08 21:13:00,
2013-01-08 16:18:00,47.9,35.1,30.32,SW,225,1.3,2.0,61,0.00,,,0.00,WUHU216HW,2013-01-08 21:18:00,
2013-01-08 16:23:00,47.9,35.1,30.31,SW,225,0.4,1.8,61,0.00,,,0.00,WUHU216HW,2013-01-08 21:23:00,
2013-01-08 16:27:00,47.9,35.1,30.32,West,270,1.1,1.8,61,0.00,,,0.00,WUHU216HW,2013-01-08 21:27:00,
2013-01-08 16:32:00,47.5,34.7,30.32,WSW,248,1.1,4.0,61,0.00,,,0.00,WUHU216HW,2013-01-08 21:32:00,
2013-01-08 16:37:00,47.5,34.7,30.32,SW,225,1.1,4.0,61,0.00,,,0.00,WUHU216HW,2013-01-08 21:37:00,
2013-01-08 16:43:00,47.2,34.4,30.32,WSW,248,0.4,2.5,61,0.00,,,0.00,WUHU216HW,2013-01-08 21:43:00,
2013-01-08 16:47:00,47.2,34.4,30.32,SW,225,1.6,1.6,61,0.00,,,0.00,WUHU216HW,2013-01-08 21:47:00,
2013-01-08 16:52:00,47.0,33.8,30.32,SW,225,0.0,1.6,60,0.00,,,0.00,WUHU216HW,2013-01-08 21:52:00,
2013-01-08 16:57:00,46.8,34.0,30.31,WSW,248,0.9,1.3,61,0.00,,,0.00,WUHU216HW,2013-01-08 21:57:00,
2013-01-08 17:02:00,46.6,33.8,30.32,SW,225,0.4,1.1,61,0.00,,,0.00,WUHU216HW,2013-01-08 22:02:00,
2013-01-08 17:08:00,46.4,33.7,30.32,SSW,203,0.2,1.1,61,0.00,,,0.00,WUHU216HW,2013-01-08 22:08:00,
2013-01-08 17:13:00,46.3,33.6,30.32,SW,225,0.9,0.9,61,0.00,,,0.00,WUHU216HW,2013-01-08 22:13:00,
2013-01-08 17:18:00,46.1,33.4,30.33,SSW,203,0.0,0.9,61,0.00,,,0.00,WUHU216HW,2013-01-08 22:18:00,
2013-01-08 17:23:00,45.7,33.4,30.32,SSW,203,0.4,0.4,62,0.00,,,0.00,WUHU216HW,2013-01-08 22:23:00,
2013-01-08 17:28:00,45.4,33.1,30.32,SSW,203,0.4,0.4,62,0.00,,,0.00,WUHU216HW,2013-01-08 22:28:00,
2013-01-08 17:33:00,45.2,33.0,30.33,SSW,203,0.0,0.4,62,0.00,,,0.00,WUHU216HW,2013-01-08 22:33:00,
2013-01-08 17:38:00,44.8,32.6,30.33,SSW,203,0.0,0.4,62,0.00,,,0.00,WUHU216HW,2013-01-08 22:38:00,
2013-01-08 17:43:00,44.5,32.7,30.33,SSW,203,0.0,0.4,63,0.00,,,0.00,WUHU216HW,2013-01-08 22:43:00,
2013-01-08 17:48:00,44.3,32.5,30.33,SSW,203,0.0,0.0,63,0.00,,,0.00,WUHU216HW,2013-01-08 22:48:00,
2013-01-08 17:53:00,43.9,32.1,30.33,SSW,203,0.0,0.2,63,0.00,,,0.00,WUHU216HW,2013-01-08 22:53:00,
2013-01-08 17:58:00,43.6,31.8,30.33,SSW,203,0.0,0.2,63,0.00,,,0.00,WUHU216HW,2013-01-08 22:58:00,
2013-01-08 18:03:00,43.4,32.0,30.33,SSW,203,0.0,0.0,64,0.00,,,0.00,WUHU216HW,2013-01-08 23:03:00,
2013-01-08 18:08:00,43.2,31.8,30.33,SSW,203,0.0,0.0,64,0.00,,,0.00,WUHU216HW,2013-01-08 23:08:00,
2013-01-08 18:13:00,43.0,31.7,30.33,SSW,203,0.0,0.0,64,0.00,,,0.00,WUHU216HW,2013-01-08 23:13:00,
2013-01-08 18:18:00,42.8,31.9,30.33,SSW,203,0.0,0.0,65,0.00,,,0.00,WUHU216HW,2013-01-08 23:18:00,
2013-01-08 18:23:00,42.5,31.5,30.33,SSW,203,0.0,0.0,65,0.00,,,0.00,WUHU216HW,2013-01-08 23:23:00,
2013-01-08 18:28:00,42.3,31.3,30.33,SSW,203,0.2,0.4,65,0.00,,,0.00,WUHU216HW,2013-01-08 23:28:00,
2013-01-08 18:33:00,42.1,31.1,30.34,SSW,203,0.0,0.4,65,0.00,,,0.00,WUHU216HW,2013-01-08 23:33:00,
2013-01-08 18:38:00,41.9,31.4,30.33,SSW,203,0.2,0.4,66,0.00,,,0.00,WUHU216HW,2013-01-08 23:38:00,
2013-01-08 18:43:00,41.8,31.2,30.33,SW,225,0.4,0.4,66,0.00,,,0.00,WUHU216HW,2013-01-08 23:43:00,
2013-01-08 18:48:00,41.6,31.1,30.33,SW,225,0.0,0.4,66,0.00,,,0.00,WUHU216HW,2013-01-08 23:48:00,
2013-01-08 18:53:00,41.4,31.2,30.34,SW,225,0.0,0.4,67,0.00,,,0.00,WUHU216HW,2013-01-08 23:53:00,
2013-01-08 18:58:00,41.4,31.2,30.33,SSE,158,0.9,0.9,67,0.00,,,0.00,WUHU216HW,2013-01-08 23:58:00,
2013-01-08 19:03:00,41.2,31.1,30.34,SSE,158,0.9,0.9,67,0.00,,,0.00,WUHU216HW,2013-01-09 00:03:00,
2013-01-08 19:08:00,41.2,31.1,30.33,SSE,158,0.4,0.9,67,0.00,,,0.00,WUHU216HW,2013-01-09 00:08:00,
2013-01-08 19:13:00,41.2,31.1,30.34,SSE,158,0.4,0.9,67,0.00,,,0.00,WUHU216HW,2013-01-09 00:13:00,
2013-01-08 19:18:00,41.2,31.1,30.34,SW,225,0.2,0.9,67,0.00,,,0.00,WUHU216HW,2013-01-09 00:18:00,
2013-01-08 19:23:00,41.0,30.9,30.34,SW,225,0.2,0.4,67,0.00,,,0.00,WUHU216HW,2013-01-09 00:23:00,
2013-01-08 19:28:00,41.0,30.9,30.34,SSE,158,0.0,0.4,67,0.00,,,0.00,WUHU216HW,2013-01-09 00:28:00,
2013-01-08 19:33:00,40.9,30.7,30.34,WSW,248,0.4,0.4,67,0.00,,,0.00,WUHU216HW,2013-01-09 00:33:00,
2013-01-08 19:38:00,40.7,31.0,30.34,SW,225,0.0,0.4,68,0.00,,,0.00,WUHU216HW,2013-01-09 00:38:00,
2013-01-08 19:43:00,40.7,31.0,30.34,SW,225,0.0,0.4,68,0.00,,,0.00,WUHU216HW,2013-01-09 00:43:00,
2013-01-08 19:48:00,40.5,30.8,30.35,West,270,0.4,0.4,68,0.00,,,0.00,WUHU216HW,2013-01-09 00:48:00,
2013-01-08 19:53:00,40.3,30.6,30.35,West,270,0.0,0.4,68,0.00,,,0.00,WUHU216HW,2013-01-09 00:53:00,
2013-01-08 19:58:00,40.1,30.4,30.34,West,270,0.0,0.4,68,0.00,,,0.00,WUHU216HW,2013-01-09 00:58:00,
2013-01-08 20:03:00,40.0,30.6,30.35,WSW,248,0.2,0.2,69,0.00,,,0.00,WUHU216HW,2013-01-09 01:03:00,
2013-01-08 20:08:00,39.8,30.4,30.35,WSW,248,0.4,0.4,69,0.00,,,0.00,WUHU216HW,2013-01-09 01:08:00,
2013-01-08 20:13:00,39.6,30.3,30.35,WSW,248,0.0,0.4,69,0.00,,,0.00,WUHU216HW,2013-01-09 01:13:00,
2013-01-08 20:18:00,39.4,30.1,30.35,WSW,248,0.0,0.0,69,0.00,,,0.00,WUHU216HW,2013-01-09 01:18:00,
2013-01-08 20:23:00,39.2,30.2,30.34,WSW,248,0.0,0.0,70,0.00,,,0.00,WUHU216HW,2013-01-09 01:23:00,
2013-01-08 20:28:00,39.2,30.2,30.34,WSW,248,0.0,0.0,70,0.00,,,0.00,WUHU216HW,2013-01-09 01:28:00,
2013-01-08 20:33:00,39.2,30.2,30.34,SW,225,0.0,0.0,70,0.00,,,0.00,WUHU216HW,2013-01-09 01:33:00,
2013-01-08 20:38:00,39.2,30.2,30.34,West,270,0.2,0.4,70,0.00,,,0.00,WUHU216HW,2013-01-09 01:38:00,
2013-01-08 20:43:00,39.2,30.6,30.34,West,270,0.0,0.4,71,0.00,,,0.00,WUHU216HW,2013-01-09 01:43:00,
2013-01-08 20:48:00,39.2,30.6,30.34,WSW,248,0.0,0.2,71,0.00,,,0.00,WUHU216HW,2013-01-09 01:48:00,
2013-01-08 20:53:00,39.1,30.4,30.34,WSW,248,0.4,0.4,71,0.00,,,0.00,WUHU216HW,2013-01-09 01:53:00,
2013-01-08 20:58:00,39.2,30.6,30.34,West,270,0.2,0.9,71,0.00,,,0.00,WUHU216HW,2013-01-09 01:58:00,
2013-01-08 21:03:00,39.1,30.4,30.34,WSW,248,0.0,0.9,71,0.00,,,0.00,WUHU216HW,2013-01-09 02:03:00,
2013-01-08 21:08:00,39.1,30.4,30.34,WSW,248,0.0,0.4,71,0.00,,,0.00,WUHU216HW,2013-01-09 02:08:00,
2013-01-08 21:13:00,38.9,30.2,30.34,WSW,248,0.2,0.4,71,0.00,,,0.00,WUHU216HW,2013-01-09 02:13:00,
2013-01-08 21:18:00,38.9,30.2,30.34,WSW,248,0.0,0.4,71,0.00,,,0.00,WUHU216HW,2013-01-09 02:18:00,
2013-01-08 21:23:00,38.9,30.2,30.34,WSW,248,0.0,0.2,71,0.00,,,0.00,WUHU216HW,2013-01-09 02:23:00,
2013-01-08 21:28:00,38.9,30.2,30.33,WSW,248,0.0,0.2,71,0.00,,,0.00,WUHU216HW,2013-01-09 02:28:00,
2013-01-08 21:33:00,38.9,30.6,30.33,WSW,248,0.0,0.0,72,0.00,,,0.00,WUHU216HW,2013-01-09 02:33:00,
2013-01-08 21:38:00,38.7,30.4,30.33,WSW,248,0.0,0.0,72,0.00,,,0.00,WUHU216HW,2013-01-09 02:38:00,
2013-01-08 21:43:00,38.7,30.4,30.34,WSW,248,0.0,0.0,72,0.00,,,0.00,WUHU216HW,2013-01-09 02:43:00,
2013-01-08 21:48:00,38.5,30.2,30.33,WSW,248,0.0,0.0,72,0.00,,,0.00,WUHU216HW,2013-01-09 02:48:00,
2013-01-08 21:53:00,38.5,30.2,30.33,WSW,248,0.0,0.0,72,0.00,,,0.00,WUHU216HW,2013-01-09 02:53:00,
2013-01-08 21:58:00,38.3,30.1,30.33,NNW,338,0.0,0.4,72,0.00,,,0.00,WUHU216HW,2013-01-09 02:58:00,
2013-01-08 22:03:00,38.2,30.0,30.34,WSW,248,0.0,0.4,72,0.00,,,0.00,WUHU216HW,2013-01-09 03:03:00,
2013-01-08 22:08:00,38.2,30.0,30.34,WSW,248,0.0,0.0,72,0.00,,,0.00,WUHU216HW,2013-01-09 03:08:00,
2013-01-08 22:13:00,38.0,29.8,30.35,WSW,248,0.0,0.0,72,0.00,,,0.00,WUHU216HW,2013-01-09 03:13:00,
2013-01-08 22:18:00,37.8,30.0,30.34,WSW,248,0.0,0.0,73,0.00,,,0.00,WUHU216HW,2013-01-09 03:18:00,
2013-01-08 22:23:00,37.8,30.0,30.34,WSW,248,0.0,0.0,73,0.00,,,0.00,WUHU216HW,2013-01-09 03:23:00,
2013-01-08 22:28:00,37.6,29.8,30.34,WSW,248,0.0,0.0,73,0.00,,,0.00,WUHU216HW,2013-01-09 03:28:00,
2013-01-08 22:33:00,37.4,29.6,30.35,WSW,248,0.0,0.2,73,0.00,,,0.00,WUHU216HW,2013-01-09 03:33:00,
2013-01-08 22:38:00,37.4,29.6,30.35,SSE,158,0.0,0.4,73,0.00,,,0.00,WUHU216HW,2013-01-09 03:38:00,
2013-01-08 22:43:00,37.3,29.4,30.35,SSW,203,0.0,0.4,73,0.00,,,0.00,WUHU216HW,2013-01-09 03:43:00,
2013-01-08 22:48:00,37.3,29.7,30.35,SSW,203,0.0,0.0,74,0.00,,,0.00,WUHU216HW,2013-01-09 03:48:00,
2013-01-08 22:53:00,37.1,29.5,30.35,SSW,203,0.0,0.0,74,0.00,,,0.00,WUHU216HW,2013-01-09 03:53:00,
2013-01-08 22:58:00,37.1,29.5,30.35,West,270,0.4,0.4,74,0.00,,,0.00,WUHU216HW,2013-01-09 03:58:00,
2013-01-08 23:03:00,37.3,29.7,30.35,WSW,248,0.0,0.4,74,0.00,,,0.00,WUHU216HW,2013-01-09 04:03:00,
2013-01-08 23:08:00,37.3,29.7,30.35,WSW,248,0.0,0.4,74,0.00,,,0.00,WUHU216HW,2013-01-09 04:08:00,
2013-01-08 23:13:00,37.4,29.9,30.36,SSW,203,0.0,0.4,74,0.00,,,0.00,WUHU216HW,2013-01-09 04:13:00,
2013-01-08 23:18:00,37.4,29.9,30.35,WSW,248,0.0,0.4,74,0.00,,,0.00,WUHU216HW,2013-01-09 04:18:00,
2013-01-08 23:23:00,37.6,30.4,30.35,WSW,248,0.0,0.4,75,0.00,,,0.00,WUHU216HW,2013-01-09 04:23:00,
2013-01-08 23:28:00,37.8,30.6,30.35,WSW,248,0.0,0.2,75,0.00,,,0.00,WUHU216HW,2013-01-09 04:28:00,
2013-01-08 23:33:00,37.8,30.6,30.35,WSW,248,0.0,0.0,75,0.00,,,0.00,WUHU216HW,2013-01-09 04:33:00,
2013-01-08 23:38:00,38.0,30.8,30.35,WSW,248,0.0,0.0,75,0.00,,,0.00,WUHU216HW,2013-01-09 04:38:00,
2013-01-08 23:43:00,38.2,31.0,30.34,WSW,248,0.0,0.0,75,0.00,,,0.00,WUHU216HW,2013-01-09 04:43:00,
2013-01-08 23:48:00,38.3,31.1,30.34,WSW,248,0.0,0.0,75,0.00,,,0.00,WUHU216HW,2013-01-09 04:48:00,
2013-01-08 23:53:00,38.3,31.1,30.34,WSW,248,0.0,0.2,75,0.00,,,0.00,WUHU216HW,2013-01-09 04:53:00,
2013-01-08 23:58:00,38.5,31.6,30.34,WSW,248,0.0,0.2,76,0.00,,,0.00,WUHU216HW,2013-01-09 04:58:00,